Location: San Antonio
(29.4240°N, 98.4930°W)
Time: 06:27:08
(UTC-06:00)

ISS - All Passes

Search period start: 21 January 2018 00:00
Search period end: 31 January 2018 00:00
Orbit: 402 x 407 km, 51.6° (Epoch: 21 January)

Date Brightness Start Highest point End Pass type
(mag) Time Alt. Az. Time Alt. Az. Time Alt. Az.
21 Jan - 04:08:21 10° NNW 04:11:20 31° NE 04:14:18 10° ESE night (unlit)
21 Jan - 05:45:43 10° W 05:47:33 14° SW 05:49:23 10° SSW visible
21 Jan - 19:08:04 10° S 19:10:23 18° SE 19:12:43 10° E visible
21 Jan - 20:43:57 10° W 20:46:43 25° NW 20:49:28 10° NNE visible
22 Jan - 03:16:44 10° N 03:18:55 16° NE 03:21:06 10° E night (unlit)
22 Jan - 04:52:29 10° WNW 04:55:26 31° SW 04:58:23 10° SSE night (unlit)
22 Jan - 19:51:10 10° SW 19:54:21 54° NW 19:57:33 10° NE visible
23 Jan - 03:59:58 10° NW 04:03:14 80° SW 04:06:29 10° SE night (unlit)
23 Jan - 18:58:54 10° SSW 19:02:06 59° SE 19:05:18 10° NE visible
23 Jan - 20:37:50 10° NW 20:38:49 11° NW 20:39:48 10° NNW visible
24 Jan - 03:07:48 10° NNW 03:10:55 41° NE 03:14:02 10° ESE night (unlit)
24 Jan - 04:46:17 10° WSW 04:47:03 11° SW 04:47:50 10° SW night (unlit)
24 Jan - 18:07:12 10° S 18:09:53 24° SE 18:12:35 10° ENE daylight
24 Jan - 19:43:49 10° W 19:46:18 20° NW 19:48:47 10° N visible
25 Jan - 02:15:59 10° NNW 02:18:31 20° NE 02:21:03 10° E night (unlit)
25 Jan - 03:52:14 10° WNW 03:54:55 24° SW 03:57:36 10° S night (unlit)
25 Jan - 17:16:53 10° SE 17:17:44 11° SE 17:18:35 10° ESE daylight
25 Jan - 18:50:48 10° WSW 18:53:52 40° NW 18:56:59 10° NNE visible
26 Jan - 01:24:54 10° NNE 01:25:59 11° NE 01:27:05 10° NE night (unlit)
26 Jan - 02:59:29 10° NW 03:02:42 57° SW 03:05:55 10° SSE night (unlit)
26 Jan - 17:58:18 10° SW 18:01:32 82° SE 18:04:48 10° NE daylight
27 Jan - 02:07:11 10° NW 02:10:24 56° NE 02:13:36 10° SE night (unlit)
27 Jan - 17:06:20 10° SSW 17:09:16 32° SE 17:12:14 10° ENE daylight
27 Jan - 18:43:39 10° W 18:45:47 16° NW 18:47:56 10° N visible
28 Jan - 01:15:12 10° NNW 01:17:59 25° NE 01:20:46 10° E night (unlit)
28 Jan - 02:51:58 10° W 02:54:17 18° SW 02:56:36 10° S night (unlit)
28 Jan - 16:15:14 10° SSE 16:17:04 14° SE 16:18:55 10° E daylight
28 Jan - 17:50:22 10° WSW 17:53:18 31° NW 17:56:15 10° NNE daylight
29 Jan - 00:23:41 10° N 00:25:27 14° NE 00:27:14 10° ENE night (unlit)
29 Jan - 01:58:57 10° WNW 02:02:03 41° SW 02:05:09 10° SSE night (unlit)
29 Jan - 16:57:39 10° SW 17:00:53 73° NW 17:04:08 10° NE daylight
30 Jan - 01:06:28 10° NW 01:09:45 77° NE 01:12:59 10° SE night (unlit)
30 Jan - 16:05:28 10° SSW 16:08:33 43° SE 16:11:40 10° ENE daylight
30 Jan - 17:43:31 10° WNW 17:45:11 13° NW 17:46:50 10° N daylight
